Regional Weather Roundup
Issued by NWS Charleston, WV

Home | Current Version | Previous Version | Graphics & Text | Print | Product List | Glossary On
Versions: 1 2 3 4 5 6 7 8 9 10 11 12 13 14 15 16 17 18 19 20 21 22 23 24 25 26 27 28 29 30 31 32 33 34 35 36 37 38 39 40 41 42 43 44 45 46 47 48 49 50
000
ASUS41 KRLX 271810
RWRRLX
West Virginia Regional Weather Roundup
National Weather Service Charleston WV
200 PM EDT MON APR 27 2015

Note: "fair" indicates few or no clouds below 12,000 feet with no
significant weather and/or obstructions to visibility.

WVZ003-271900-
Northern Panhandle of West Virginia

CITY           SKY/WX    TMP DP  RH WIND       PRES   REMARKS
WHEELING       LGT RAIN  46  37  71 NW12      29.91S
$$

WVZ009-271900-
Northwest West Virginia

CITY           SKY/WX    TMP DP  RH WIND       PRES   REMARKS
PARKERSBURG    CLOUDY    53  34  48 NW10G21   29.97R
$$

WVZ006-271900-
Western West Virginia

CITY           SKY/WX    TMP DP  RH WIND       PRES   REMARKS
HUNTINGTON     CLOUDY    59  35  40 N10       29.94F
$$

WVZ015-271900-
West Central West Virginia

CITY           SKY/WX    TMP DP  RH WIND       PRES   REMARKS
CHARLESTON     PTSUNNY   56  32  40 NW8G16    29.94S
$$

WVZ022-031-271900-
North Central West Virginia

CITY           SKY/WX    TMP DP  RH WIND       PRES   REMARKS
CLARKSBURG     CLOUDY    50  32  50 NW12      29.90R
MORGANTOWN     CLOUDY    50  31  48 NW13      29.90R
$$

WVZ025-035-042-045-271900-
Southern West Virginia

CITY           SKY/WX    TMP DP  RH WIND       PRES   REMARKS
BECKLEY        CLOUDY    49  29  46 N17       29.91F
LOGAN          CLOUDY    54  32  43 W7G13     29.91S
BLUEFIELD      CLOUDY    51  27  39 N9G21     29.90F
LEWISBURG      CLOUDY    52  27  36 NW12G20   29.89S
$$

WVZ047-271900-
Northern Mountains of West Virginia

CITY           SKY/WX    TMP DP  RH WIND       PRES   REMARKS
ELKINS         CLOUDY    48  30  49 NW13      29.89R
$$

WVZ052-271900-
Eastern Panhandle of West Virginia

CITY           SKY/WX    TMP DP  RH WIND       PRES   REMARKS
MARTINSBURG    CLOUDY    55  30  38 W12       29.81F
PETERSBURG     CLOUDY    51  29  43 NW9G17    29.87S
$$



USA.gov is the U.S. government's official web portal to all federal, state and local government web resources and services.